View from above orbital plane
|
View from above satellite
|
Ground track
|
The orbit data is extracted from the following two-line orbital elements,
1 23788U 96009B 21026.25698105 .00000019 00000-0 47809-4 0 9991
2 23788 82.5720 123.5973 0006337 204.7866 155.2915 12.63153145149852
Epoch (UTC): | 26 January 2021 06:10:03 |
Eccentricity: | 0.0006337 |
inclination: | 82.5720° |
perigee height: | 1405 km |
apogee height: | 1415 km |
right ascension of ascending node: | 123.5973° |
argument of perigee: | 204.7866° |
revolutions per day: | 12.63153145 |
mean anomaly at epoch: | 155.2915° |
orbit number at epoch: | 14985 |
The dashed part of the orbit path shows where the satellite is in the earth's shadow,
|
|